• In Moldova, Republic
  • List of Countries
  • For 7 days
  • Water Temperature
  • Satellite Maps
  • Weather Map
  • Weather Widgets
  • user-avatar
    Login

    Hourly Weather Townsville

    Today, 24 March, Friday

    Time Temperature Precipitation Wind Pressure Humidity
    00:00 +27°C° 0.6 mm 3 mps 751 mmHg 94%
    01:00 +26°C° 0.6 mm 2 mps 750 mmHg 95%
    02:00 +26°C° 0.6 mm 2 mps 750 mmHg 96%
    03:00 +26°C° 0.6 mm 3 mps 750 mmHg 96%
    04:00 +26°C° 0 mm 2 mps 750 mmHg 98%
    05:00 +26°C° 1.1 mm 3 mps 750 mmHg 97%
    06:00 +26°C° 1.1 mm 3 mps 750 mmHg 96%
    07:00 +26°C° 1.1 mm 4 mps 750 mmHg 95%
    08:00 +28°C° 1.1 mm 4 mps 750 mmHg 87%
    09:00 +30°C° 1.1 mm 5 mps 750 mmHg 78%
    10:00 +32°C° 0 mm 5 mps 751 mmHg 73%
    11:00 +33°C° 0.6 mm 5 mps 751 mmHg 70%
    12:00 +33°C° 0.6 mm 5 mps 750 mmHg 67%
    13:00 +34°C° 0.6 mm 5 mps 750 mmHg 64%
    14:00 +34°C° 0.8 mm 5 mps 749 mmHg 64%
    15:00 +34°C° 0.8 mm 6 mps 749 mmHg 64%
    16:00 +33°C° 0.8 mm 6 mps 749 mmHg 65%
    17:00 +32°C° 0.9 mm 6 mps 749 mmHg 70%
    18:00 +30°C° 0.9 mm 5 mps 749 mmHg 76%
    19:00 +28°C° 0.9 mm 5 mps 750 mmHg 81%
    20:00 +28°C° 0.2 mm 5 mps 750 mmHg 83%
    21:00 +27°C° 0.2 mm 5 mps 750 mmHg 85%
    22:00 +27°C° 0.2 mm 5 mps 751 mmHg 87%
    23:00 +26°C° 0 mm 5 mps 750 mmHg 89%

    Tomorrow, 25 March, Saturday

    Time Temperature Precipitation Wind Pressure Humidity
    00:00 +26°C° 0 mm 5 mps 750 mmHg 91%
    01:00 +25°C° 0 mm 5 mps 750 mmHg 93%
    02:00 +25°C° 0 mm 5 mps 750 mmHg 94%
    03:00 +25°C° 0 mm 5 mps 749 mmHg 95%
    04:00 +25°C° 0 mm 5 mps 749 mmHg 96%
    05:00 +25°C° 0 mm 5 mps 749 mmHg 95%
    06:00 +25°C° 0 mm 5 mps 750 mmHg 94%
    07:00 +24°C° 0 mm 6 mps 750 mmHg 94%
    08:00 +27°C° 0 mm 6 mps 750 mmHg 86%
    09:00 +29°C° 0 mm 6 mps 750 mmHg 78%
    10:00 +32°C° 0 mm 6 mps 751 mmHg 70%
    11:00 +33°C° 0 mm 5 mps 750 mmHg 65%
    12:00 +34°C° 0 mm 5 mps 750 mmHg 60%
    13:00 +35°C° 0 mm 4 mps 749 mmHg 55%
    14:00 +35°C° 0 mm 4 mps 749 mmHg 55%
    15:00 +35°C° 0 mm 4 mps 748 mmHg 56%
    16:00 +35°C° 0 mm 4 mps 748 mmHg 57%
    17:00 +33°C° 0.1 mm 4 mps 748 mmHg 61%
    18:00 +32°C° 0.1 mm 4 mps 749 mmHg 65%
    19:00 +30°C° 0.1 mm 4 mps 749 mmHg 69%
    20:00 +30°C° 0 mm 4 mps 750 mmHg 71%
    21:00 +29°C° 0 mm 5 mps 750 mmHg 72%
    22:00 +29°C° 0 mm 5 mps 751 mmHg 74%
    23:00 +28°C° 0 mm 5 mps 750 mmHg 75%

    Day after tomorrow, 26 March, Sunday

    Time Temperature Precipitation Wind Pressure Humidity
    00:00 +27°C° 0 mm 6 mps 750 mmHg 77%
    01:00 +27°C° 0 mm 6 mps 749 mmHg 79%
    02:00 +27°C° 0 mm 6 mps 749 mmHg 80%
    03:00 +26°C° 0 mm 6 mps 749 mmHg 81%
    04:00 +26°C° 0 mm 6 mps 749 mmHg 82%
    05:00 +26°C° 0 mm 7 mps 749 mmHg 82%
    06:00 +26°C° 0 mm 7 mps 749 mmHg 83%
    07:00 +26°C° 0 mm 7 mps 750 mmHg 84%
    08:00 +27°C° 0 mm 7 mps 750 mmHg 82%
    09:00 +28°C° 0 mm 7 mps 750 mmHg 80%
    10:00 +28°C° 0 mm 7 mps 750 mmHg 77%
    11:00 +29°C° 0 mm 7 mps 749 mmHg 74%
    12:00 +30°C° 0 mm 7 mps 749 mmHg 72%
    13:00 +32°C° 0 mm 7 mps 748 mmHg 69%
    14:00 +32°C° 0 mm 7 mps 747 mmHg 68%
    15:00 +32°C° 0 mm 7 mps 747 mmHg 67%
    16:00 +32°C° 0 mm 8 mps 746 mmHg 66%
    17:00 +31°C° 0 mm 8 mps 746 mmHg 68%
    18:00 +31°C° 0 mm 8 mps 746 mmHg 69%
    19:00 +29°C° 0 mm 8 mps 746 mmHg 71%
    20:00 +29°C° 0.2 mm 9 mps 747 mmHg 72%
    21:00 +29°C° 0.2 mm 9 mps 747 mmHg 73%
    22:00 +29°C° 0.2 mm 9 mps 747 mmHg 73%
    23:00 +28°C° 0.7 mm 9 mps 746 mmHg 76%

    27 March, Monday

    Time Temperature Precipitation Wind Pressure Humidity
    00:00 +28°C° 0.7 mm 9 mps 746 mmHg 79%
    01:00 +27°C° 0.7 mm 9 mps 745 mmHg 83%
    02:00 +27°C° 1.8 mm 10 mps 745 mmHg 85%
    03:00 +26°C° 1.8 mm 10 mps 744 mmHg 87%
    04:00 +26°C° 1.8 mm 11 mps 743 mmHg 89%
    05:00 +26°C° 5.6 mm 11 mps 743 mmHg 90%
    06:00 +26°C° 5.6 mm 12 mps 743 mmHg 92%
    07:00 +24°C° 5.6 mm 12 mps 743 mmHg 93%
    08:00 +24°C° 11.1 mm 13 mps 743 mmHg 93%
    09:00 +26°C° 11.1 mm 14 mps 743 mmHg 93%
    10:00 +26°C° 11.1 mm 15 mps 743 mmHg 94%
    11:00 +26°C° 9.3 mm 15 mps 742 mmHg 94%
    12:00 +26°C° 9.3 mm 15 mps 742 mmHg 94%
    13:00 +26°C° 9.3 mm 15 mps 741 mmHg 94%
    14:00 +26°C° 8.7 mm 15 mps 741 mmHg 95%
    15:00 +27°C° 8.7 mm 14 mps 740 mmHg 95%
    16:00 +27°C° 8.7 mm 13 mps 740 mmHg 96%
    17:00 +27°C° 7 mm 13 mps 740 mmHg 96%
    18:00 +27°C° 7 mm 13 mps 741 mmHg 96%
    19:00 +27°C° 7 mm 12 mps 741 mmHg 96%
    20:00 +27°C° 3.7 mm 12 mps 741 mmHg 96%
    21:00 +27°C° 3.7 mm 12 mps 742 mmHg 95%
    22:00 +27°C° 3.7 mm 12 mps 742 mmHg 95%
    23:00 +27°C° 2.4 mm 12 mps 742 mmHg 95%

    28 March, Tuesday

    Time Temperature Precipitation Wind Pressure Humidity
    00:00 +27°C° 2.4 mm 12 mps 742 mmHg 95%
    01:00 +27°C° 2.4 mm 12 mps 742 mmHg 95%
    02:00 +27°C° 2.9 mm 12 mps 742 mmHg 95%
    03:00 +27°C° 2.9 mm 11 mps 742 mmHg 95%
    04:00 +27°C° 2.9 mm 11 mps 742 mmHg 95%
    05:00 +27°C° 3.6 mm 11 mps 743 mmHg 95%
    06:00 +27°C° 3.6 mm 10 mps 744 mmHg 95%
    07:00 +26°C° 3.6 mm 10 mps 745 mmHg 95%
    08:00 +26°C° 2 mm 9 mps 746 mmHg 94%
    09:00 +26°C° 2 mm 9 mps 746 mmHg 94%
    10:00 +26°C° 2 mm 8 mps 747 mmHg 94%
    11:00 +27°C° 0.8 mm 8 mps 747 mmHg 93%
    12:00 +27°C° 0.8 mm 7 mps 746 mmHg 93%
    13:00 +27°C° 0.8 mm 6 mps 746 mmHg 92%
    14:00 +27°C° 0.7 mm 6 mps 746 mmHg 92%
    15:00 +27°C° 0.7 mm 6 mps 746 mmHg 92%
    16:00 +27°C° 0.7 mm 6 mps 746 mmHg 93%
    17:00 +27°C° 2.5 mm 6 mps 747 mmHg 93%
    18:00 +27°C° 2.5 mm 6 mps 747 mmHg 94%
    19:00 +27°C° 2.5 mm 7 mps 748 mmHg 95%
    20:00 +27°C° 2.9 mm 7 mps 748 mmHg 95%
    21:00 +27°C° 2.9 mm 7 mps 749 mmHg 95%
    22:00 +27°C° 2.9 mm 7 mps 749 mmHg 95%
    23:00 +27°C° 1.6 mm 7 mps 749 mmHg 95%

    29 March, Wednesday

    Time Temperature Precipitation Wind Pressure Humidity
    00:00 +27°C° 1.6 mm 7 mps 749 mmHg 95%
    01:00 +27°C° 1.6 mm 6 mps 748 mmHg 95%
    02:00 +27°C° 0.9 mm 6 mps 748 mmHg 96%
    03:00 +27°C° 0.9 mm 6 mps 748 mmHg 96%
    04:00 +27°C° 0.9 mm 5 mps 748 mmHg 96%
    05:00 +27°C° 0.6 mm 5 mps 749 mmHg 96%
    06:00 +27°C° 0.6 mm 5 mps 749 mmHg 96%
    07:00 +27°C° 0.6 mm 4 mps 750 mmHg 96%
    08:00 +28°C° 1.3 mm 4 mps 750 mmHg 91%
    09:00 +29°C° 1.3 mm 5 mps 750 mmHg 85%
    10:00 +32°C° 1.3 mm 5 mps 750 mmHg 80%
    11:00 +32°C° 1.4 mm 5 mps 750 mmHg 77%
    12:00 +32°C° 1.4 mm 5 mps 749 mmHg 74%
    13:00 +33°C° 1.4 mm 5 mps 749 mmHg 71%
    14:00 +32°C° 1.6 mm 5 mps 748 mmHg 72%
    15:00 +32°C° 1.6 mm 5 mps 748 mmHg 74%
    16:00 +30°C° 1.6 mm 5 mps 748 mmHg 76%
    17:00 +29°C° 2 mm 5 mps 749 mmHg 82%
    18:00 +28°C° 2 mm 5 mps 749 mmHg 87%
    19:00 +27°C° 2 mm 5 mps 750 mmHg 93%
    20:00 +27°C° 2.3 mm 5 mps 750 mmHg 93%
    21:00 +27°C° 2.3 mm 5 mps 750 mmHg 93%
    22:00 +27°C° 2.3 mm 5 mps 750 mmHg 92%
    23:00 +27°C° 1.8 mm 5 mps 750 mmHg 92%
    Show more